Regional Weather Roundup
Issued by NWS

Home | Current Version | Previous Version | Text Only | Print | Product List | Glossary Off
Versions: 1 2 3 4 5 6 7 8 9 10 11 12 13 14 15 16 17 18 19 20 21 22 23 24 25 26 27 28 29 30 31 32 33 34 35 36 37 38 39 40 41 42 43 44 45 46 47 48 49 50

000
ASUS43 KLSX 311907
RWRMO

WEATHER SUMMARY FOR MISSOURI
NATIONAL WEATHER SERVICE SPRINGFIELD MO
200 PM CDT MON AUG 31 2015

NOTE: "FAIR" INDICATES FEW OR NO CLOUDS BELOW 12,000 FEET WITH NO
       SIGNIFICANT WEATHER AND/OR OBSTRUCTIONS TO VISIBILITY.
       CURRENT SKY AND/OR WEATHER CONDITIONS ARE NOT AVAILABLE FOR
       CHILLICOTHE AND FARMINGTON.

MOZ001>031-035>038-043-044-053-054-312000-
...NORTHERN AND WESTERN MISSOURI...

CITY           SKY/WX    TMP DP  RH WIND       PRES   REMARKS
KANSAS CTY INT MOSUNNY   88  68  51 S13       29.98F HX  91
KANSAS C DTWN  MOSUNNY   90  69  50 SW12      29.96F HX  94
LEE`S SUMMIT   MOSUNNY   87  68  52 SW10      29.99F HX  90
ST JOSEPH      MOSUNNY   85  71  63 S9        29.96F HX  90
CHILLICOTHE      N/A     87  73  62 S8        29.99F HX  94
KIRKSVILLE     SUNNY     90  69  50 S12       30.01F HX  94

$$
MOZ066>068-077>081-088>096-101>105-312000-
...SOUTHWEST MISSOURI...

CITY           SKY/WX    TMP DP  RH WIND       PRES   REMARKS
SPRINGFIELD    SUNNY     88  68  51 S14       30.05F HX  91
JOPLIN         SUNNY     88  70  55 S13       30.02F HX  93

$$
MOZ032>034-039>042-045>050-055>058-069>072-312000-
...CENTRAL MISSOURI...

CITY           SKY/WX    TMP DP  RH WIND       PRES   REMARKS
COLUMBIA       SUNNY     88  71  57 S13       30.02F HX  94
JEFFERSON CITY SUNNY     90  67  46 SE12      30.00F HX  93
ROLLA          MOSUNNY   89  68  49 SW9       30.04F HX  93
SEDALIA        SUNNY     92  68  45 S12       30.02F HX  96
WHITEMAN AFB   MOSUNNY   89  70  53 SW13      29.99F HX  94
WARRENSBURG    SUNNY     88  68  51 SE10      29.99F HX  91
OSAGE BEACH    MOSUNNY   91  68  46 S7        30.03F HX  95

$$
MOZ051-052-059>065-312000-
...EAST CENTRAL MISSOURI...

CITY           SKY/WX    TMP DP  RH WIND       PRES   REMARKS
ST LOUIS INTL  PTSUNNY   89  71  55 VRB5      30.04F HX  95
SPIRIT OF STL  MOSUNNY   88  73  61 SW5       30.02F HX  95
ST CHARLES     MOSUNNY   87  73  62 S12       30.02F HX  94

$$
MOZ072>076-082>087-097>100-106>115-312000-
...SOUTH CENTRAL AND SOUTHEAST MISSOURI...

CITY           SKY/WX    TMP DP  RH WIND       PRES   REMARKS
CAPE GIRARDEAU PTSUNNY   86  70  58 VRB6      30.07F HX  90
FARMINGTON     SUNNY     88  73  62 SE12      30.09F HX  96
POPLAR BLUFF   SUNNY     86  72  62 SE5       30.06F HX  92
WEST PLAINS    SUNNY     86  68  54 SW7       30.09F

$$


USA.gov is the U.S. government's official web portal to all federal, state and local government web resources and services.